SCP
0 -0 -0 -0 0 0 0 0 0 0 0 0 0 0 0 0 0 0 0 0 0 0 0 0 0 0 0
0 0 0 0 0 0 0 0 0 0 0 0 0 0 0 0 0 0 0 0 0 0 0 0 0 0 0
0 0 0 0 0 0 0 0 0 0 0 0 0 0 0 0 0 0 0 0 0 0 0 0 0 0 0
0 0 0 0 0 0 0 0 0 0 0 0 0 0 0 0 0 0 0 0 0 0 0 0 0 0 0
0 0 -0 -0 0 0 0 0 0 0 0 0 0 0 0 0 0 0 0 0 0 0 0 0 0 0 0
-0 -0 -0 -0 -0 -0 0 0 0 0 0 0 0 0 0 0 0 0 0 0 0 0 0 0 0 0 0
-0 -0 0 -0 -0 -0 -0 0 0 0 0 0 0 0 0 0 0 0 0 0 0 0 0 0 0 0 0
0 0 0 0 0 0 0 0 0 0 0 0 0 0 0 0 0 0 0 0 0 0 0 0 0 0 0
0 0 0 0 0 0 0 0 0 0 0 0 0 0 0 0 0 0 0 0 0 0 0 0 0 0 0
0 0 0 0 0 0 0 0 0 0 0 0 0 0 0 0 0 0 0 0 0 0 0 0 0 0 0
0 0 0 0 0 0 0 0 0 0 0 0 0 0 0 0 0 0 0 0 0 0 0 0 0 0 0
0 0 0 0 0 0 0 0 0 0 0 0 0 0 0 0 0 0 0 0 0 0 0 0 0 0 0
0 0 0 0 0 0 0 0 0 0 0 0 0 0 0 0 0 0 0 0 0 0 0 0 0 0 0
0 0 0 0 0 0 0 0 0 0 0 0 0 0 0 0 0 0 0 0 0 0 0 0 0 0 0
0 0 0 0 0 0 0 0 0 0 0 0 0 0 0 0 0 0 0 0 0 0 0 0 0 0 0
0 0 0 0 0 0 0 0 0 0 0 0 0 0 0 0 0 0 0 0 0 0 0 0 0 0 0
Wind_Speed_500mb
23 19 16 14 12 10 8 7 6 3 3 4 5 6 8 10 10 11 12 14 14 13 14 15 10 9 13
21 17 14 11 9 9 7 5 4 2 1 3 4 9 9 10 11 11 13 11 10 9 12 13 11 10 12
18 15 14 12 10 8 7 5 4 4 6 3 6 12 11 12 10 10 11 6 9 11 12 15 13 8 12
19 15 12 10 8 7 6 2 4 5 4 13 10 9 10 12 11 10 9 8 10 12 13 13 12 9 11
18 10 10 13 8 6 5 4 7 3 6 6 8 10 11 12 11 12 12 13 12 14 17 18 14 13 17
18 14 15 11 8 9 5 4 3 6 10 12 15 18 19 20 19 18 19 17 20 20 20 18 13 14 20
18 17 15 10 5 3 3 9 10 13 20 22 22 25 22 19 22 22 24 20 25 27 21 17 17 19 20
19 17 16 16 18 16 14 16 17 19 19 23 30 32 28 26 26 27 27 24 23 24 20 18 19 21 21
21 22 22 22 23 22 21 22 23 26 31 33 36 33 30 29 30 25 25 24 22 26 23 25 25 26 22
32 33 29 27 27 27 29 29 31 33 36 40 37 33 32 32 34 30 18 14 16 19 23 23 22 17 14
39 41 38 34 32 33 35 35 35 36 37 37 34 29 26 24 17 11 9 10 18 18 17 13 11 13 16
42 42 42 40 36 34 33 30 30 31 30 26 20 13 9 6 8 10 12 14 15 16 16 9 14 18 21
47 47 47 44 38 35 29 25 24 23 18 10 5 4 5 7 10 13 13 14 14 13 9 12 14 14 17
50 47 46 42 38 33 26 21 17 11 4 2 4 5 7 8 10 12 13 12 13 16 12 13 16 21 30
49 48 47 44 39 31 24 17 12 7 6 6 6 6 7 10 12 13 13 13 13 13 15 16 12 17 18
47 47 45 38 31 26 22 16 13 12 10 7 5 5 9 11 14 14 14 14 14 14 14 16 23 30 21
Wind_Direction_500mb
157 160 159 156 157 150 135 129 120 82 44 39 33 26 3 351 343 343 347 350 355 2 355 345 14 14 356
160 160 161 162 163 165 170 171 190 252 300 358 15 359 352 347 347 349 358 9 9 15 0 351 350 344 353
167 169 176 182 185 186 194 208 233 253 292 40 35 42 33 18 11 23 38 33 18 13 11 6 358 351 340
174 179 188 197 206 205 197 214 249 258 13 70 56 45 31 20 17 6 3 358 350 348 342 334 336 352 321
176 166 126 107 114 118 135 48 14 99 26 2 347 332 328 322 321 320 319 319 325 331 330 322 310 284 276
179 151 129 119 106 37 7 55 344 311 311 313 311 304 304 308 307 315 305 306 314 316 311 306 305 286 292
176 162 166 171 178 303 194 206 231 264 289 290 292 291 298 301 307 300 308 306 299 300 303 295 292 296 297
184 176 182 202 210 226 242 244 253 271 276 283 286 286 293 286 288 285 290 288 291 295 294 290 296 296 287
193 205 215 220 228 239 254 259 262 276 288 298 303 294 284 281 281 288 289 288 288 293 296 294 294 294 289
205 217 227 234 242 249 257 261 267 277 284 290 291 288 288 288 285 278 278 283 294 280 279 288 290 292 275
215 220 230 238 243 250 256 262 272 280 285 288 292 298 300 304 306 317 301 273 271 283 284 282 273 289 297
222 227 232 238 246 249 254 264 276 285 290 296 301 317 319 319 337 315 297 289 282 278 284 269 283 288 287
226 230 234 239 241 245 250 263 275 283 291 304 316 301 319 322 310 302 298 287 281 276 277 290 290 276 254
229 236 233 234 238 242 250 266 276 280 285 274 281 299 315 316 326 333 327 310 283 273 249 261 279 275 267
228 231 230 230 234 239 250 257 259 242 233 249 277 313 323 340 345 341 339 334 316 292 274 250 265 253 283
238 237 236 240 241 240 244 244 234 222 224 240 275 319 344 345 346 348 348 344 340 331 312 286 269 269 273
Wind_Speed_850mb
23 19 16 14 12 10 8 7 6 3 3 4 5 6 8 10 10 11 12 14 14 13 14 15 10 9 13
21 17 14 11 9 9 7 5 4 2 1 3 4 9 9 10 11 11 13 11 10 9 12 13 11 10 12
18 15 14 12 10 8 7 5 4 4 6 3 6 12 11 12 10 10 11 6 9 11 12 15 13 8 12
19 15 12 10 8 7 6 2 4 5 4 13 10 9 10 12 11 10 9 8 10 12 13 13 12 9 11
18 10 10 13 8 6 5 4 7 3 6 6 8 10 11 12 11 12 12 13 12 14 17 18 14 13 17
18 14 15 11 8 9 5 4 3 6 10 12 15 18 19 20 19 18 19 17 20 20 20 18 13 14 20
18 17 15 10 5 3 3 9 10 13 20 22 22 25 22 19 22 22 24 20 25 27 21 17 17 19 20
19 17 16 16 18 16 14 16 17 19 19 23 30 32 28 26 26 27 27 24 23 24 20 18 19 21 21
21 22 22 22 23 22 21 22 23 26 31 33 36 33 30 29 30 25 25 24 22 26 23 25 25 26 22
32 33 29 27 27 27 29 29 31 33 36 40 37 33 32 32 34 30 18 14 16 19 23 23 22 17 14
39 41 38 34 32 33 35 35 35 36 37 37 34 29 26 24 17 11 9 10 18 18 17 13 11 13 16
42 42 42 40 36 34 33 30 30 31 30 26 20 13 9 6 8 10 12 14 15 16 16 9 14 18 21
47 47 47 44 38 35 29 25 24 23 18 10 5 4 5 7 10 13 13 14 14 13 9 12 14 14 17
50 47 46 42 38 33 26 21 17 11 4 2 4 5 7 8 10 12 13 12 13 16 12 13 16 21 30
49 48 47 44 39 31 24 17 12 7 6 6 6 6 7 10 12 13 13 13 13 13 15 16 12 17 18
47 47 45 38 31 26 22 16 13 12 10 7 5 5 9 11 14 14 14 14 14 14 14 16 23 30 21
Wind_Direction_850mb
157 160 159 156 157 150 135 129 120 82 44 39 33 26 3 351 343 343 347 350 355 2 355 345 14 14 356
160 160 161 162 163 165 170 171 190 252 300 358 15 359 352 347 347 349 358 9 9 15 0 351 350 344 353
167 169 176 182 185 186 194 208 233 253 292 40 35 42 33 18 11 23 38 33 18 13 11 6 358 351 340
174 179 188 197 206 205 197 214 249 258 13 70 56 45 31 20 17 6 3 358 350 348 342 334 336 352 321
176 166 126 107 114 118 135 48 14 99 26 2 347 332 328 322 321 320 319 319 325 331 330 322 310 284 276
179 151 129 119 106 37 7 55 344 311 311 313 311 304 304 308 307 315 305 306 314 316 311 306 305 286 292
176 162 166 171 178 303 194 206 231 264 289 290 292 291 298 301 307 300 308 306 299 300 303 295 292 296 297
184 176 182 202 210 226 242 244 253 271 276 283 286 286 293 286 288 285 290 288 291 295 294 290 296 296 287
193 205 215 220 228 239 254 259 262 276 288 298 303 294 284 281 281 288 289 288 288 293 296 294 294 294 289
205 217 227 234 242 249 257 261 267 277 284 290 291 288 288 288 285 278 278 283 294 280 279 288 290 292 275
215 220 230 238 243 250 256 262 272 280 285 288 292 298 300 304 306 317 301 273 271 283 284 282 273 289 297
222 227 232 238 246 249 254 264 276 285 290 296 301 317 319 319 337 315 297 289 282 278 284 269 283 288 287
226 230 234 239 241 245 250 263 275 283 291 304 316 301 319 322 310 302 298 287 281 276 277 290 290 276 254
229 236 233 234 238 242 250 266 276 280 285 274 281 299 315 316 326 333 327 310 283 273 249 261 279 275 267
228 231 230 230 234 239 250 257 259 242 233 249 277 313 323 340 345 341 339 334 316 292 274 250 265 253 283
238 237 236 240 241 240 244 244 234 222 224 240 275 319 344 345 346 348 348 344 340 331 312 286 269 269 273